Back to catalog

STARLINK-1422

AliveCommunicationsVLEO
NORAD 45696·PAYLOAD·🇺🇸 United States

Launched Jun 4, 2020 from Cape Canaveral Space Force Station

Loading…

Next Passes (next 24 hours)

TLE

FreshSource: CelesTrak SupGP

Epoch: Sep 14, 2026, 12:44 UTC

1 45696C 20035AR  26257.53104167  .00036519  00000+0  74681-3 0  2578
2 45696  53.1508 243.8629 0006029  40.6840 291.2125 15.45505969    19

Track STARLINK-1422 in real time with AllMySat

Download on the App Store